NOAA 16 DEB, 41418

Orbit data source: Space-Track

NOAA 16 DEB, 41418 is space debris in SSO originally from a launch on Thu, 21 Sep 2000 UTC launched from the Air Force Western Test Range (AFWTR). Debris objects in space refer to the collection of defunct objects orbiting the Earth. Examples of debris include non-operational satellites, rocket bodies, and fragments generated from explosions, collisions, or faulty payload assembly.

Loading next visibility...
Identifier
41418, 2000-055KX
Orbit
SSO
Country
Flag of USUS
Related business
Manufacturer
Unknown
Mission
Spacecraft
Bus & Motor
Unknown
Mass
Unknown
Launch date (UTC)
2000-09-21 (26 years ago)
Launch vehicle
Unknown
Launch site
Air Force Western Test Range (AFWTR)
Object type
Payload
Rocket body
Debris
Shape & HBR
Unknown shape, 0.1 m
Radar Cross Section
Medium (>0.1 m² and <1 m²)

Expand to show TLE details & history
Last TLE update: 1 day ago

TLE from 1 day ago
0 NOAA 16 DEB
1 41418U 00055KX  26262.48543203  .00003107  00000-0  77193-3 0  9996
2 41418  99.0002 147.5587 0024543 183.7437 176.3577 14.52416116550960
Epoch: 2026-09-19T11:39Z
TLE epoch observation values (Epoch: 2026-09-19T11:39:01.327Z)
Latitude
0.00003°
Longitude
-25.59012°
Altitude
738.101 km
Speed
7.477 km/s
True Right ascension
09h 50m 14s
True Declination
0° 00' 00"
Sunlit
Object was in daylight at epoch
Visualization orbit readout
Latitude
Unknown
Longitude
Unknown
Altitude
Unknown
Speed
Unknown
Apparent Right ascension
Unknown
Apparent Declination
Unknown
Sunlit
N/A
Visualization observer readout
Local Sidereal Time
14:02:08
Azimuth
Unknown
Elevation
Unknown
Doppler factor
Unknown
Orbital elements
Apogee altitude
732.306 km
Perigee altitude
697.489 km
Semi-major axis
7,093.035 km
Eccentricity
0.00245
Inclination
99.0002°
RAAN
147.5587°
Arg. of periapsis
183.7437°
True anomaly
176.37551°
Mean anomaly
176.3577°
Eccentric anomaly
176.36661°
Mean motion
3.63325 °/min
Orbital period
99.08 mins
BSTAR
0.00077193
Loading maneuver chart data...
Computing Atmospheric mass density...

Documentation

Showing up to 5 results
|